TimeCDT,TemperatureF,Dew PointF,Humidity,Sea Level PressureIn,VisibilityMPH,Wind Direction,Wind SpeedMPH,Gust SpeedMPH,PrecipitationIn,Events,Conditions,WindDirDegrees,DateUTC
12:53 AM,34.0,33.1,96,29.95,10.0,NW,4.6,-,N/A,,Overcast,310,2013-10-18 05:53:00
1:53 AM,34.0,32.0,92,29.96,10.0,NW,5.8,-,N/A,,Overcast,310,2013-10-18 06:53:00
2:53 AM,30.9,28.9,92,29.96,10.0,WNW,4.6,-,N/A,,Clear,300,2013-10-18 07:53:00
3:53 AM,30.9,28.9,92,29.96,10.0,WNW,3.5,-,N/A,,Clear,300,2013-10-18 08:53:00
4:53 AM,28.9,28.0,96,29.96,10.0,WNW,3.5,-,N/A,,Clear,300,2013-10-18 09:53:00
5:53 AM,28.9,28.0,96,29.96,10.0,Calm,Calm,-,N/A,,Clear,0,2013-10-18 10:53:00
6:53 AM,28.0,26.1,92,29.97,10.0,Calm,Calm,-,N/A,,Clear,0,2013-10-18 11:53:00
7:53 AM,28.9,27.0,92,29.97,10.0,Calm,Calm,-,N/A,,Overcast,0,2013-10-18 12:53:00
8:53 AM,32.0,30.0,92,29.97,10.0,Calm,Calm,-,N/A,,Overcast,0,2013-10-18 13:53:00
9:53 AM,36.0,33.1,89,29.97,10.0,WNW,4.6,-,N/A,,Clear,290,2013-10-18 14:53:00
10:53 AM,42.1,35.1,76,29.96,10.0,West,9.2,-,N/A,,Mostly Cloudy,260,2013-10-18 15:53:00
11:53 AM,44.1,32.0,63,29.96,10.0,West,10.4,-,N/A,,Overcast,280,2013-10-18 16:53:00
12:53 PM,46.9,28.9,50,29.94,10.0,WNW,16.1,-,N/A,,Partly Cloudy,290,2013-10-18 17:53:00
1:53 PM,48.0,25.0,41,29.91,10.0,WNW,15.0,-,N/A,,Mostly Cloudy,290,2013-10-18 18:53:00
2:53 PM,46.0,27.0,47,29.90,10.0,West,12.7,-,N/A,,Mostly Cloudy,270,2013-10-18 19:53:00
3:53 PM,48.0,28.0,46,29.88,10.0,WSW,16.1,19.6,N/A,,Overcast,250,2013-10-18 20:53:00
4:53 PM,44.1,28.0,53,29.88,10.0,West,11.5,-,N/A,,Overcast,270,2013-10-18 21:53:00
5:53 PM,42.1,32.0,67,29.88,10.0,West,11.5,-,0.00,,Overcast,260,2013-10-18 22:53:00
6:53 PM,39.0,33.1,79,29.89,10.0,WSW,11.5,19.6,N/A,,Overcast,250,2013-10-18 23:53:00
7:29 PM,37.4,35.6,93,29.84,10.0,WSW,11.5,-,0.01,Rain,Light Rain,250,2013-10-19 00:29:00
7:53 PM,37.0,35.1,93,29.88,10.0,SSW,5.8,-,0.01,,Overcast,200,2013-10-19 00:53:00
8:53 PM,36.0,34.0,93,29.86,10.0,SW,8.1,-,N/A,,Overcast,230,2013-10-19 01:53:00
9:53 PM,34.0,32.0,92,29.84,10.0,SW,3.5,-,N/A,,Scattered Clouds,220,2013-10-19 02:53:00
10:53 PM,33.1,32.0,96,29.82,10.0,Calm,Calm,-,N/A,,Overcast,0,2013-10-19 03:53:00
11:53 PM,35.1,34.0,96,29.79,10.0,SW,5.8,-,0.00,,Overcast,220,2013-10-19 04:53:00